OBJECT QW

Last updated on Fri Dec 06 2019 00:02:12 GMT+0000 (Coordinated Universal Time)

1 44791U 98067QW 19339.28393803 -.00000432 00000-0 48121-6 0 9998 2 44791 51.6432 232.9699 0003556 5.3558 354.7469 15.50804268 2327
UTC large
Height (km)
Speed (km/s)
/
Latitude / Longitude
Inclination (degrees)
Orbital Period (minutes)
Azimuth
Elevation
Range (km)
Doppler Factor

Next 0 passes for location: London (51.5072 / 0.1276)

Sorry there are no passes over London.